Location: Bacea
(45.9500°N, 22.6667°E)
Time: 21:59:20
(UTC+00:00)

Cosmos 1727 Rocket - Pass Details

Date: 16 October 2021
Orbit: 960 x 997 km, 82.9° (Epoch: 29 November)

Event Time Altitude Azimuth Distance (km) Brightness Sun altitude
Rises 16:26:57 0° 352° (N) 3,687 7.1 -8.7°
Reaches altitude 10° 16:29:29 10° 353° (N) 2,730 6.4 -9.1°
Maximum altitude 16:35:45 80° 81° (E) 987 4.0 -10.2°
Drops below altitude 10° 16:41:55 10° 169° (S) 2,691 6.2 -11.3°
Sets 16:44:24 0° 170° (S) 3,631 6.9 -11.7°
